EW6086 Weather Reports


time (UTC)temp
F
wind
direction
speed
knots
gust
knots
rain 1hr
in
rain 24hr
in
rain mn
in
humidity
%
barometer
mb
20220930150241 73 90 2.6 5.2 0.00 0.00 0.00 58 1016.9
20220930145953 72 90 3.5 7.0 0.00 0.00 0.00 59 1016.9
20220930145446 72 90 3.5 7.0 0.00 0.00 0.00 59 1017.0
20220930144710 72 90 3.5 7.0 0.00 0.00 0.00 61 1017.0
20220930144204 71 90 3.5 7.0 0.00 0.00 0.00 62 1017.0
20220930143657 71 90 3.5 7.8 0.00 0.00 0.00 62 1017.0
20220930143422 70 90 4.3 7.8 0.00 0.00 0.00 63 1016.9
20220930142916 70 90 4.3 7.8 0.00 0.00 0.00 63 1016.9
20220930142140 69 90 4.3 7.8 0.00 0.00 0.00 64 1016.8
20220930141904 69 90 3.5 7.8 0.00 0.00 0.00 64 1016.8
20220930141127 68 90 2.6 5.2 0.00 0.00 0.00 67 1016.9
20220930140621 68 90 2.6 5.2 0.00 0.00 0.00 68 1016.9
20220930140116 67 90 1.7 7.0 0.00 0.00 0.00 69 1016.9
20220930135840 67 90 1.7 7.0 0.00 0.00 0.00 70 1016.9
20220930135103 66 90 1.7 5.2 0.00 0.00 0.00 73 1017.0
20220930134829 65 90 1.7 5.2 0.00 0.00 0.00 71 1017.0
20220930134051 65 90 0.9 4.3 0.00 0.00 0.00 73 1017.0
20220930133545 64 90 0.0 3.5 0.00 0.00 0.00 75 1017.0
20220930132027 62 90 0.0 0.0 0.00 0.00 0.00 80 1016.9
20220930131755 62 90 0.0 0.0 0.00 0.00 0.00 81 1017.0
20220930131015 61 90 0.0 0.0 0.00 0.00 0.00 82 1017.0
20220930130741 61 90 0.0 0.0 0.00 0.00 0.00 82 1017.0
20220930130007 60 90 0.0 0.0 0.00 0.00 0.00 83 1017.0
20220930125457 60 90 0.0 0.0 0.00 0.00 0.00 83 1017.0
20220930125222 60 90 0.0 0.0 0.00 0.00 0.00 83 1017.0
20220930124445 60 90 0.0 0.0 0.00 0.00 0.00 83 1017.0
20220930123939 60 90 0.0 0.0 0.00 0.00 0.00 83 1016.9
20220930122928 59 90 0.0 0.0 0.00 0.00 0.00 83 1016.9
20220930122427 60 90 0.0 0.0 0.00 0.00 0.00 83 1016.8
20220930121924 60 90 0.0 0.0 0.00 0.00 0.00 83 1016.8
20220930121424 60 90 0.0 0.0 0.00 0.00 0.00 83 1016.7
20220930120922 60 90 0.0 0.0 0.00 0.00 0.00 83 1016.7
20220930120423 60 90 0.0 0.0 0.00 0.00 0.00 83 1016.8
20220930115922 60 90 0.0 0.0 0.00 0.00 0.00 83 1016.7
20220930115421 60 90 0.0 0.0 0.00 0.00 0.00 84 1016.7
20220930114922 60 90 0.0 3.5 0.00 0.00 0.00 84 1016.6
20220930114420 60 90 0.0 3.5 0.00 0.00 0.00 85 1016.7
20220930113917 60 90 0.0 1.7 0.00 0.00 0.00 86 1016.7
20220930113646 59 90 0.0 0.9 0.00 0.00 0.00 86 1016.6
20220930112143 59 90 0.0 0.0 0.00 0.00 0.00 87 1016.6
20220930111412 59 90 0.0 0.0 0.00 0.00 0.00 87 1016.6
20220930110908 59 90 0.0 0.9 0.00 0.00 0.00 87 1016.6
20220930110408 59 90 0.0 0.9 0.00 0.00 0.00 87 1016.6
20220930105905 59 90 0.0 0.0 0.00 0.00 0.00 86 1016.5
20220930105403 60 90 0.0 0.0 0.00 0.00 0.00 86 1016.5
20220930105132 60 90 0.0 0.0 0.00 0.00 0.00 86 1016.5
20220930104632 60 90 0.0 0.9 0.00 0.00 0.00 86 1016.5
20220930103855 60 90 0.0 0.9 0.00 0.00 0.00 85 1016.5
20220930103357 60 90 0.0 2.6 0.00 0.00 0.00 85 1016.6
20220930102357 60 90 0.0 2.6 0.00 0.00 0.00 86 1016.6
20220930101852 60 90 0.9 3.5 0.00 0.00 0.00 86 1016.6
20220930101354 60 90 0.9 3.5 0.00 0.00 0.00 86 1016.6
20220930100850 60 90 0.9 2.6 0.00 0.00 0.00 85 1016.5
20220930100350 60 90 0.0 3.5 0.00 0.00 0.00 85 1016.5
20220930095852 61 90 0.0 3.5 0.00 0.00 0.00 85 1016.5
20220930095352 61 90 0.0 1.7 0.00 0.00 0.00 85 1016.5
20220930094850 61 90 0.0 1.7 0.00 0.00 0.00 86 1016.5
20220930094354 61 90 0.0 2.6 0.00 0.00 0.00 85 1016.5
20220930093847 61 90 0.0 2.6 0.00 0.00 0.00 85 1016.5
20220930093346 61 90 0.0 0.9 0.00 0.00 0.00 85 1016.5
20220930092847 61 90 0.0 0.9 0.00 0.00 0.00 85 1016.5
20220930092346 61 90 0.0 0.9 0.00 0.00 0.00 85 1016.5
20220930091847 61 90 0.0 1.7 0.00 0.00 0.00 84 1016.4
20220930091618 62 90 0.0 1.7 0.00 0.00 0.00 84 1016.4
20220930090846 62 90 0.0 0.9 0.00 0.00 0.00 84 1016.4
20220930090347 62 90 0.0 0.9 0.00 0.00 0.00 84 1016.4
20220930085617 62 90 0.0 0.0 0.00 0.00 0.00 83 1016.4
20220930084617 62 90 0.0 0.0 0.00 0.00 0.00 83 1016.5
20220930084118 63 90 0.0 0.0 0.00 0.00 0.00 83 1016.5
20220930082847 63 90 0.0 0.0 0.00 0.00 0.00 83 1016.5
20220930082347 63 90 0.0 0.0 0.00 0.00 0.00 83 1016.5
20220930081845 63 90 0.0 0.0 0.00 0.00 0.00 83 1016.5
20220930081344 64 90 0.0 0.0 0.00 0.00 0.00 83 1016.5
20220930080839 64 90 0.0 3.5 0.00 0.00 0.00 83 1016.6
20220930080333 64 90 0.9 5.2 0.00 0.00 0.00 84 1016.6
20220930075827 64 90 0.9 5.2 0.00 0.00 0.00 86 1016.5
20220930075321 64 90 0.0 3.5 0.00 0.00 0.00 90 1016.5
20220930075045 64 90 0.0 2.6 0.00 0.00 0.00 90 1016.5
20220930074309 64 90 0.0 2.6 0.00 0.00 0.00 91 1016.6
20220930074034 64 90 0.0 2.6 0.00 0.00 0.00 91 1016.7
20220930073256 64 90 0.0 0.9 0.00 0.00 0.00 91 1016.7
20220930072750 63 90 0.0 0.9 0.00 0.00 0.00 91 1016.6
20220930072245 64 90 0.0 0.0 0.00 0.00 0.00 90 1016.6
20220930071739 64 90 0.0 0.0 0.00 0.00 0.00 90 1016.6
20220930070726 65 90 0.0 0.0 0.00 0.00 0.00 90 1016.7
20220930070221 65 90 0.0 0.0 0.00 0.00 0.00 90 1016.7
20220930065714 65 90 0.0 0.0 0.00 0.00 0.00 90 1016.7
20220930065208 65 90 0.0 0.0 0.00 0.00 0.00 89 1016.7
20220930064429 67 90 0.0 0.0 0.00 0.00 0.00 88 1016.7
20220930063651 67 90 0.0 0.0 0.00 0.00 0.00 88 1016.6
20220930063145 67 90 0.0 0.0 0.00 0.00 0.00 89 1016.6
20220930062909 67 90 0.0 0.0 0.00 0.00 0.00 88 1016.6
20220930062133 67 90 0.0 0.0 0.00 0.00 0.00 89 1016.6
20220930061627 67 90 0.0 0.0 0.00 0.00 0.00 88 1016.6
20220930061120 67 90 0.0 0.0 0.00 0.00 0.00 88 1016.6
20220930060615 67 90 0.0 0.0 0.00 0.00 0.00 88 1016.7
20220930060122 67 90 0.0 0.0 0.00 0.00 0.00 87 1016.7
20220930055328 68 90 0.0 0.0 0.00 0.00 0.00 86 1016.7
20220930054822 68 90 0.0 0.0 0.00 0.00 0.00 85 1016.8
20220930054044 68 90 0.0 0.0 0.00 0.00 0.00 84 1016.8
20220930053538 69 90 0.0 0.0 0.00 0.00 0.00 84 1016.6
20220930053033 69 90 0.0 0.0 0.00 0.00 0.00 84 1016.8
20220930052021 69 90 0.0 0.0 0.00 0.00 0.00 85 1016.7
20220930051521 69 90 0.0 0.0 0.00 0.00 0.00 86 1016.8
20220930051011 68 90 0.0 0.0 0.00 0.00 0.00 87 1016.8
20220930050503 68 90 0.0 0.0 0.00 0.00 0.00 87 1016.8
20220930045451 68 90 0.0 0.0 0.00 0.00 0.00 87 1016.9
20220930045217 68 90 0.0 0.0 0.00 0.00 0.00 86 1017.0
20220930044439 68 90 0.0 0.0 0.00 0.00 0.00 86 1017.1
20220930043427 69 90 0.0 0.0 0.00 0.00 0.00 84 1017.1
20220930042922 69 90 0.0 0.0 0.00 0.00 0.00 83 1017.1
20220930042415 70 90 0.0 0.0 0.00 0.00 0.00 83 1017.1
20220930041910 71 90 0.0 0.0 0.00 0.00 0.00 83 1017.1
20220930040858 70 90 0.0 0.0 0.00 0.00 0.00 85 1017.1
20220930040623 70 90 0.0 0.0 0.00 0.00 0.00 84 1017.1
20220930035846 70 90 0.0 0.0 0.00 0.00 0.00 83 1017.1
20220930034836 70 90 0.0 0.0 0.00 0.00 0.00 83 1017.1
20220930034332 71 90 0.0 0.0 0.00 0.00 0.00 81 1017.1
20220930034103 72 90 0.0 0.0 0.00 0.00 0.00 80 1017.1
20220930033601 73 90 0.0 0.0 0.00 0.00 0.00 81 1017.1
20220930032833 74 90 0.0 0.0 0.00 0.00 0.00 80 1017.1
20220930032329 74 90 0.0 0.0 0.00 0.00 0.00 80 1017.1
20220930032059 74 90 0.0 0.0 0.00 0.00 0.00 79 1017.0
20220930030831 75 90 0.0 0.0 0.00 0.00 0.00 79 1017.0
20220930030328 75 90 0.0 0.0 0.00 0.00 0.00 78 1017.0
20220930030058 76 90 0.0 0.0 0.00 0.00 0.00 76 1017.0
20220930025328 76 90 0.0 0.0 0.00 0.00 0.00 75 1017.0
20220930024326 76 90 0.0 0.0 0.00 0.00 0.00 75 1016.9
20220930023826 76 90 0.0 0.0 0.00 0.00 0.00 75 1017.0
20220930023053 76 90 0.0 0.0 0.00 0.00 0.00 75 1017.0
20220930022323 76 90 0.0 0.0 0.00 0.00 0.00 75 1016.9
20220930021818 76 90 0.0 0.0 0.00 0.00 0.00 75 1016.9
20220930020815 76 90 0.0 0.0 0.00 0.00 0.00 76 1016.9
20220930020314 75 90 0.0 0.0 0.00 0.00 0.00 77 1017.0
20220930015811 75 90 0.0 0.0 0.00 0.00 0.00 78 1017.0
20220930015308 75 90 0.0 0.0 0.00 0.00 0.00 79 1016.9
20220930015041 76 90 0.0 0.0 0.00 0.00 0.00 78 1016.9
20220930013804 76 202 0.0 0.0 0.00 0.00 0.00 78 1016.8
20220930013304 76 90 0.0 0.0 0.00 0.00 0.00 77 1016.8
20220930013037 76 90 0.0 0.0 0.00 0.00 0.00 77 1016.8
20220930012305 76 90 0.0 0.9 0.00 0.00 0.00 77 1016.7
20220930011306 76 90 0.0 0.0 0.00 0.00 0.00 76 1016.7
20220930011032 76 90 0.0 0.0 0.00 0.00 0.00 76 1016.6
20220930010313 76 90 0.0 0.0 0.00 0.00 0.00 76 1016.5
20220930005801 76 90 0.0 0.0 0.00 0.00 0.00 76 1016.5
20220930005532 77 90 0.0 0.0 0.00 0.00 0.00 75 1016.5
20220930004801 77 90 0.0 0.0 0.00 0.00 0.00 75 1016.4
20220930004301 77 90 0.0 0.0 0.00 0.00 0.00 74 1016.4
20220930003801 77 90 0.0 0.0 0.00 0.00 0.00 73 1016.5
20220930003300 78 90 0.0 0.0 0.00 0.00 0.00 72 1016.5
20220930002802 78 90 0.0 0.0 0.00 0.00 0.00 72 1016.5
20220930002300 78 90 0.0 0.0 0.00 0.00 0.00 71 1016.5
20220930001802 78 90 0.0 0.0 0.00 0.00 0.00 70 1016.4
20220930001300 78 90 0.0 0.0 0.00 0.00 0.00 70 1016.5
20220930000801 78 90 0.0 0.0 0.00 0.00 0.00 69 1016.5
20220930000533 79 90 0.0 0.0 0.00 0.00 0.00 68 1016.5
20220929235801 79 90 0.0 0.0 0.00 0.00 0.00 68 1016.4
20220929235532 79 90 0.0 0.0 0.00 0.00 0.00 68 1016.5
20220929234800 79 90 0.0 0.0 0.00 0.00 0.00 66 1016.5
20220929234529 80 90 0.0 1.7 0.00 0.00 0.00 65 1016.4
20220929233752 80 90 0.0 1.7 0.00 0.00 0.00 64 1016.4
20220929233246 80 90 0.0 1.7 0.00 0.00 0.00 63 1016.4
20220929232741 80 90 0.0 3.5 0.00 0.00 0.00 62 1016.4
20220929232234 80 90 0.0 3.5 0.00 0.00 0.00 60 1016.5
20220929231728 81 90 0.9 4.3 0.00 0.00 0.00 59 1016.5
20220929230455 81 90 0.0 3.5 0.00 0.00 0.00 59 1016.6
20220929225936 81 90 0.9 3.5 0.00 0.00 0.00 57 1016.7
20220929225200 81 90 0.9 5.2 0.00 0.00 0.00 59 1016.7
20220929224652 81 90 0.9 5.2 0.00 0.00 0.00 58 1016.8
20220929224417 81 90 0.9 3.5 0.00 0.00 0.00 59 1016.8
20220929223912 82 90 0.9 4.3 0.00 0.00 0.00 59 1016.8
20220929223406 82 90 0.9 4.3 0.00 0.00 0.00 58 1016.9
20220929221617 82 90 0.9 4.3 0.00 0.00 0.00 55 1016.9
20220929221342 82 90 0.9 5.2 0.00 0.00 0.00 57 1016.9
20220929220604 82 90 0.9 5.2 0.00 0.00 0.00 55 1017.0
20220929220058 82 90 0.9 5.2 0.00 0.00 0.00 57 1017.1
20220929215824 82 90 0.9 5.2 0.00 0.00 0.00 57 1017.1
20220929215047 82 90 0.9 4.3 0.00 0.00 0.00 56 1017.1
20220929214813 82 90 0.9 3.5 0.00 0.00 0.00 56 1017.2
20220929214306 83 90 0.0 3.5 0.00 0.00 0.00 53 1017.2
20220929213759 83 90 0.9 4.3 0.00 0.00 0.00 54 1017.2
20220929213023 83 90 0.9 4.3 0.00 0.00 0.00 54 1017.3
20220929212516 83 90 0.9 3.5 0.00 0.00 0.00 53 1017.4
20220929212010 83 90 0.0 3.5 0.00 0.00 0.00 54 1017.4
20220929211504 83 90 0.0 2.6 0.00 0.00 0.00 53 1017.4
20220929210958 83 90 0.9 3.5 0.00 0.00 0.00 51 1017.5
20220929210452 83 202 0.0 3.5 0.00 0.00 0.00 54 1017.5
20220929205947 84 90 0.0 2.6 0.00 0.00 0.00 53 1017.6
20220929205441 84 90 0.0 2.6 0.00 0.00 0.00 52 1017.7
20220929204934 85 90 0.0 0.9 0.00 0.00 0.00 45 1017.7
20220929204659 85 90 0.0 0.9 0.00 0.00 0.00 46 1017.7
20220929203922 86 90 0.0 5.2 0.00 0.00 0.00 39 1017.8
20220929203417 86 90 0.0 5.2 0.00 0.00 0.00 40 1017.8
20220929202911 86 90 0.0 0.0 0.00 0.00 0.00 40 1017.9
20220929202635 86 90 0.0 0.0 0.00 0.00 0.00 39 1018.0
20220929201859 85 90 0.0 0.0 0.00 0.00 0.00 40 1018.1
20220929201406 85 90 0.0 0.0 0.00 0.00 0.00 42 1018.2
20220929201117 85 90 0.0 0.9 0.00 0.00 0.00 42 1018.3
20220929200341 85 90 0.0 0.9 0.00 0.00 0.00 41 1018.4
20220929195834 85 90 0.0 3.5 0.00 0.00 0.00 41 1018.6
20220929195328 85 90 0.0 3.5 0.00 0.00 0.00 39 1018.7
20220929195054 85 90 0.0 0.9 0.00 0.00 0.00 41 1018.8
20220929194042 85 90 0.0 0.0 0.00 0.00 0.00 41 1019.0
20220929193535 85 90 0.0 1.7 0.00 0.00 0.00 40 1019.1
20220929193029 85 90 0.0 4.3 0.00 0.00 0.00 39 1019.2
20220929192252 85 90 0.0 4.3 0.00 0.00 0.00 42 1019.3
20220929191746 85 90 0.0 0.9 0.00 0.00 0.00 41 1019.4
20220929191241 85 90 0.0 4.3 0.00 0.00 0.00 43 1019.6
20220929190734 84 90 0.0 4.3 0.00 0.00 0.00 43 1019.6
20220929190228 84 27 0.9 2.6 0.00 0.00 0.00 42 1019.7
20220929185724 84 90 0.9 5.2 0.00 0.00 0.00 42 1019.8
20220929185217 84 90 0.9 5.2 0.00 0.00 0.00 44 1019.9
20220929184943 84 90 0.0 3.5 0.00 0.00 0.00 42 1020.0
20220929184204 84 90 0.0 3.5 0.00 0.00 0.00 45 1020.1
20220929183658 83 90 0.0 3.5 0.00 0.00 0.00 42 1020.2
20220929183423 83 90 0.0 3.5 0.00 0.00 0.00 44 1020.3
20220929182141 83 90 0.0 3.5 0.00 0.00 0.00 43 1020.4
20220929181634 83 90 0.0 2.6 0.00 0.00 0.00 42 1020.5
20220929181400 83 90 0.0 2.6 0.00 0.00 0.00 45 1020.6
20220929180859 83 90 0.9 5.2 0.00 0.00 0.00 44 1020.7
20220929180129 83 90 0.0 5.2 0.00 0.00 0.00 43 1020.7
20220929175628 83 90 0.0 3.5 0.00 0.00 0.00 46 1021.0
20220929175127 83 90 0.0 3.5 0.00 0.00 0.00 44 1021.0
20220929174628 82 90 0.0 4.3 0.00 0.00 0.00 44 1021.1
20220929174401 83 90 0.0 4.3 0.00 0.00 0.00 47 1021.1
20220929173628 82 90 0.9 4.3 0.00 0.00 0.00 45 1021.2
20220929173128 82 90 0.0 4.3 0.00 0.00 0.00 46 1021.3
20220929172628 82 90 0.0 4.3 0.00 0.00 0.00 47 1021.4
20220929172400 82 90 0.0 4.3 0.00 0.00 0.00 48 1021.4
20220929171629 82 90 0.0 1.7 0.00 0.00 0.00 48 1021.4
20220929170858 82 90 0.0 2.6 0.00 0.00 0.00 50 1021.5
20220929170140 82 90 0.0 2.6 0.00 0.00 0.00 51 1021.5
20220929165628 81 90 0.0 2.6 0.00 0.00 0.00 49 1021.6
20220929165127 81 90 0.0 3.5 0.00 0.00 0.00 49 1021.7
20220929164628 81 90 0.0 5.2 0.00 0.00 0.00 50 1021.8
20220929164359 81 90 0.9 5.2 0.00 0.00 0.00 52 1021.8
20220929163628 81 90 0.9 3.5 0.00 0.00 0.00 52 1021.9
20220929163359 81 90 0.0 3.5 0.00 0.00 0.00 50 1021.9
20220929162627 81 90 0.0 3.5 0.00 0.00 0.00 52 1021.9
20220929162127 81 90 0.9 3.5 0.00 0.00 0.00 51 1022.0
20220929161859 81 90 0.9 5.2 0.00 0.00 0.00 54 1022.0
20220929161126 80 90 0.9 5.2 0.00 0.00 0.00 55 1022.0
20220929160626 80 90 1.7 0.0 0.00 0.00 0.00 56 1022.0
20220929155739 80 90 1.7 7.0 0.00 0.00 0.00 58 1022.1
20220929154740 79 90 2.6 5.2 0.00 0.00 0.00 59 1022.0
20220929154241 79 90 2.6 5.2 0.00 0.00 0.00 59 1022.1
20220929153737 78 90 2.6 7.0 0.00 0.00 0.00 59 1022.1
20220929153235 78 90 2.6 7.0 0.00 0.00 0.00 62 1022.1
20220929152737 78 90 3.5 7.0 0.00 0.00 0.00 61 1022.1
20220929152235 77 90 4.3 7.0 0.00 0.00 0.00 62 1022.0
20220929151735 77 90 3.5 7.0 0.00 0.00 0.00 61 1022.0
20220929151237 77 90 3.5 7.0 0.00 0.00 0.00 65 1022.1